DW6936 Weather Reports


Display with metric or nautical units.
time (UTC)temp
F
wind
direction
speed
MPH
gust
MPH
rain 1hr
in
rain 24hr
in
rain mn
in
humidity
%
barometer
mb
20170430103948 48 194 5.0 6.0 0.00 0.19 0.00 89 1018.3
20170430100947 47 159 3.0 7.0 0.00 0.19 0.00 90 1018.3
20170430090942 48 160 1.0 8.0 0.00 0.19 0.00 89 1017.8
20170430085941 48 162 4.0 8.0 0.00 0.19 0.00 89 1017.8
20170430084941 48 139 2.0 8.0 0.00 0.19 0.00 89 1017.7
20170430083941 49 137 1.0 9.0 0.00 0.19 0.00 89 1017.7
20170430081011 49 187 4.0 10.0 0.00 0.19 0.00 89 1017.7
20170430074940 49 157 7.0 12.0 0.00 0.19 0.00 88 1017.4
20170430073939 49 146 3.0 11.0 0.00 0.19 0.00 88 1017.4
20170430073009 49 184 3.0 9.0 0.00 0.19 0.00 88 1017.4
20170430072009 49 171 4.0 14.0 0.00 0.19 0.00 88 1017.2
20170430061007 49 195 6.0 12.0 0.00 0.19 0.19 87 1017.0
20170430060006 49 144 4.0 10.0 0.00 0.19 0.19 87 1017.0
20170430052006 49 131 5.0 15.0 0.00 0.19 0.19 87 1017.1
20170430050005 49 202 4.0 10.0 0.00 0.19 0.19 87 1017.0
20170430045005 48 189 7.0 12.0 0.00 0.19 0.19 87 1017.0
20170430042004 48 139 3.0 8.0 0.00 0.19 0.19 88 1017.0
20170430041004 48 108 7.0 8.0 0.00 0.19 0.19 88 1017.0
20170430031002 48 100 2.0 7.0 0.01 0.19 0.19 90 1017.3
20170430020000 48 75 0.0 0.0 0.07 0.18 0.18 93 1018.1
20170430002958 50 110 2.0 7.0 0.03 0.07 0.07 88 1018.8
20170430001957 50 90 3.0 4.0 0.02 0.06 0.06 88 1018.8
20170429233956 50 61 3.0 6.0 0.00 0.04 0.04 88 1019.2
20170429232955 50 54 3.0 6.0 0.00 0.04 0.04 87 1019.3
20170429225955 50 48 3.0 8.0 0.00 0.04 0.04 87 1019.3
20170429222954 51 71 4.0 7.0 0.00 0.04 0.04 87 1019.8
20170429214953 51 15 2.0 6.0 0.01 0.04 0.04 87 1020.7
20170429213953 51 63 5.0 5.0 0.01 0.04 0.04 88 1020.9
20170429212953 50 68 2.0 5.0 0.01 0.04 0.04 89 1021.1
20170429211005 50 58 0.0 4.0 0.02 0.03 0.03 87 1021.0
20170429205005 50 61 1.0 2.0 0.03 0.03 0.03 88 1021.2
20170429195003 52 167 4.0 8.0 0.00 0.00 0.00 76 1021.4
20170429194002 52 142 6.0 7.0 0.00 0.00 0.00 76 1021.5
20170429192002 52 160 5.0 11.0 0.00 0.00 0.00 75 1021.9
20170429185001 52 127 5.0 5.0 0.00 0.00 0.00 78 1022.5
20170429175959 51 239 2.0 5.0 0.00 0.00 0.00 81 1023.4
20170429173959 50 197 2.0 5.0 0.00 0.00 0.00 81 1023.6
20170429172959 50 158 2.0 5.0 0.00 0.00 0.00 81 1023.5
20170429163958 49 146 2.0 8.0 0.00 0.00 0.00 80 1024.1
20170429162957 48 133 6.0 10.0 0.00 0.00 0.00 81 1024.2
20170429154956 47 99 9.0 9.0 0.00 0.00 0.00 83 1024.7
20170429153955 47 135 3.0 9.0 0.00 0.00 0.00 82 1024.8
20170429152956 47 120 5.0 8.0 0.00 0.00 0.00 82 1024.9
20170429151955 47 139 3.0 9.0 0.00 0.00 0.00 83 1025.1
20170429143954 45 124 1.0 4.0 0.00 0.00 0.00 86 1024.9
20170429133953 44 124 0.0 2.0 0.00 0.00 0.00 86 1024.4
20170429131952 44 124 1.0 2.0 0.00 0.00 0.00 85 1024.4
20170429130952 44 125 1.0 2.0 0.00 0.00 0.00 84 1024.5
20170429124951 44 62 1.0 4.0 0.00 0.00 0.00 83 1024.4
20170429121950 45 75 2.0 5.0 0.00 0.00 0.00 82 1024.4
20170429114949 46 125 1.0 7.0 0.00 0.00 0.00 81 1024.5
20170429112949 46 123 5.0 6.0 0.00 0.00 0.00 80 1024.7
20170429110948 46 96 6.0 6.0 0.00 0.00 0.00 80 1024.6